Weather History for KPBI - July, 2014

Change the Weather History Date:

Tuesday, July 15, 2014

  Actual Average Record
Temperature  
Mean Temperature 81 °F 83 °F  
Max Temperature 86 °F 90 °F 97 °F (1981)
Min Temperature 75 °F 76 °F 67 °F (1904)
Degree Days  
Heating Degree Days 0 0  
Month to date heating degree days 0 0  
Since 1 June heating degree days 0 0  
Since 1 July heating degree days 0 0  
Cooling Degree Days 16 18  
Month to date cooling degree days 263 259  
Year to date cooling degree days 2103 1858  
Since 1 June cooling degree days 751 749  
Growing Degree Days 30 (Base 50)    
Moisture  
Dew Point 72 °F    
Average Humidity 77    
Maximum Humidity 88    
Minimum Humidity 65    
Precipitation  
Precipitation 0.50 in 0.17 in 2.10 in (1954)
Month to date precipitation 4.89 2.99  
Year to date precipitation 30.59 30.00  
Snow  
Snow 0.00 in - - ()
Month to date snowfall 0.0  
Since 1 June snowfall 0.0  
Since 1 July snowfall 0.0  
Snow Depth 0.00 in    
Sea Level Pressure  
Sea Level Pressure 30.02 in    
Wind  
Wind Speed 4 mph (South)    
Max Wind Speed 26 mph    
Max Gust Speed 32 mph    
Visibility 9 miles    
Events Rain , Thunderstorm    
T = Trace of Precipitation, MM = Missing Value Source: NWS Daily Summary

Daily Weather History Graph

Daily Weather History Graph

Search for Another Location

Airport or City:

Trip Planner

Search our weather history database for the weather conditions in past years. The results will help you decide how hot, cold, wet, or windy it might be!

Date:

Astronomy

Jul. 15, 2014 Rise Set
Actual Time 6:36 AM EDT 8:15 PM EDT
Civil Twilight 6:10 AM EDT 8:41 PM EDT
Nautical Twilight 5:39 AM EDT 9:12 PM EDT
Astronomical Twilight 5:07 AM EDT 9:44 PM EDT
Moon 10:50 PM EDT (7/15) 10:04 AM EDT (7/15)
Length of Visible Light 14h 30m
Length of Day
13h 39m
Waning Gibbous, 85% of the Moon is Illuminated
Jul 15
Waning Gibbous
Jul 18
Last Quarter
Jul 26
New
Aug 3
First Quarter
Aug 10
Full

Hourly Weather History & Observations

Time (EDT) Temp. Heat Index Dew Point Humidity Pressure Visibility Wind Dir Wind Speed Gust Speed Precip Events Conditions
12:53 AM 78.1 °F - 72.0 °F 81% 30.03 in 10.0 mi WSW 3.5 mph - N/A   Mostly Cloudy
1:53 AM 79.0 °F - 72.0 °F 79% 30.02 in 10.0 mi Calm Calm - N/A   Mostly Cloudy
2:53 AM 79.0 °F - 72.0 °F 79% 30.01 in 10.0 mi Calm Calm - N/A   Mostly Cloudy
3:53 AM 77.0 °F - 73.0 °F 88% 30.01 in 10.0 mi Calm Calm - N/A   Mostly Cloudy
4:53 AM 78.1 °F - 73.0 °F 84% 30.01 in 10.0 mi WSW 3.5 mph - N/A   Scattered Clouds
5:53 AM 77.0 °F - 73.0 °F 88% 30.02 in 10.0 mi Calm Calm - N/A   Mostly Cloudy
6:53 AM 78.1 °F - 73.0 °F 84% 30.02 in 10.0 mi Calm Calm - N/A   Mostly Cloudy
7:53 AM 80.1 °F 85.1 °F 75.0 °F 85% 30.04 in 10.0 mi Calm Calm - N/A   Mostly Cloudy
8:53 AM 84.0 °F 91.9 °F 75.0 °F 74% 30.05 in 10.0 mi Calm Calm - N/A   Mostly Cloudy
9:53 AM 86.0 °F 93.8 °F 73.9 °F 67% 30.04 in 10.0 mi Calm Calm - N/A   Mostly Cloudy
10:42 AM 84.0 °F 91.2 °F 73.9 °F 72% 30.04 in 10.0 mi ESE 5.8 mph - N/A   Mostly Cloudy
10:53 AM 84.0 °F 91.9 °F 75.0 °F 74% 30.04 in 10.0 mi East 10.4 mph - N/A   Mostly Cloudy
11:19 AM 80.1 °F 84.2 °F 73.0 °F 79% 30.04 in 1.5 mi Variable 3.5 mph - 0.07 in Rain Heavy Rain
11:30 AM 79.0 °F - 73.9 °F 84% 30.05 in 3.0 mi East 12.7 mph 17.3 mph 0.30 in Rain , Thunderstorm Thunderstorms and Rain
11:43 AM 79.0 °F - 73.0 °F 82% 30.05 in 6.0 mi SSE 16.1 mph - 0.30 in Rain , Thunderstorm Light Thunderstorms and Rain
11:53 AM 79.0 °F - 71.1 °F 77% 30.04 in 6.0 mi SSE 13.8 mph - 0.30 in Rain , Thunderstorm Thunderstorms and Rain
12:26 PM 77.0 °F - 72.0 °F 84% 30.06 in 10.0 mi SW 4.6 mph - 0.00 in Thunderstorm Thunderstorm
12:53 PM 75.9 °F - 72.0 °F 87% 30.05 in 4.0 mi Calm Calm - 0.14 in Rain , Thunderstorm Thunderstorms and Rain
1:30 PM 79.0 °F - 72.0 °F 79% 30.04 in 10.0 mi Calm Calm - 0.00 in Rain Light Rain
1:53 PM 80.1 °F 83.8 °F 72.0 °F 76% 30.02 in 10.0 mi SE 5.8 mph - 0.00 in Rain Light Rain
2:53 PM 82.0 °F 87.9 °F 73.9 °F 76% 29.99 in 10.0 mi SE 5.8 mph - 0.00 in   Mostly Cloudy
3:00 PM 82.9 °F 89.4 °F 73.9 °F 74% 30.00 in 10.0 mi SSE 4.6 mph - N/A Thunderstorm Thunderstorm
3:41 PM 82.9 °F 88.0 °F 72.0 °F 69% 30.00 in 10.0 mi SSW 11.5 mph - N/A Thunderstorm Thunderstorm
3:53 PM 78.1 °F - 69.1 °F 74% 30.01 in 7.0 mi WSW 19.6 mph 26.5 mph N/A Thunderstorm Thunderstorm
3:58 PM 78.1 °F - 69.1 °F 74% 30.00 in 7.0 mi WSW 17.3 mph 24.2 mph N/A Thunderstorm Thunderstorm
4:38 PM 75.9 °F - 68.0 °F 76% 29.99 in 10.0 mi WSW 10.4 mph - N/A   Mostly Cloudy
4:53 PM 75.0 °F - 68.0 °F 79% 29.99 in 10.0 mi WSW 6.9 mph - N/A   Mostly Cloudy
5:53 PM 78.1 °F - 72.0 °F 81% 29.97 in 10.0 mi SSW 9.2 mph - 0.06 in   Mostly Cloudy
6:53 PM 79.0 °F - 72.0 °F 79% 29.97 in 10.0 mi SSW 6.9 mph - N/A   Mostly Cloudy
7:53 PM 80.1 °F 83.6 °F 71.1 °F 74% 29.99 in 10.0 mi South 4.6 mph - N/A   Mostly Cloudy
8:53 PM 79.0 °F - 72.0 °F 79% 29.98 in 10.0 mi SSW 5.8 mph - N/A   Mostly Cloudy
9:53 PM 79.0 °F - 73.0 °F 82% 29.98 in 10.0 mi SSW 3.5 mph - N/A   Mostly Cloudy
10:53 PM 79.0 °F - 73.0 °F 82% 29.99 in 10.0 mi SSE 5.8 mph - N/A   Mostly Cloudy
11:53 PM 79.0 °F - 73.0 °F 82% 30.00 in 10.0 mi Calm Calm - N/A   Mostly Cloudy